Home > Time Zones > World Clock > Weather > Peru > Cuzco > Past weeks

Flag for Peru Weather past 2 weeks in Cuzco, Cusco, Peru

Now
50 °F

Broken clouds.


Feels Like: 50 °F
Forecast: 42 / 63 °F
Wind: No wind

Location: Cuzco Airport

Current Time: Sep 30, 2014 at 7:43:59 AM

Latest Report: Sep 30, 2014 at 7:00 AM


Visibility: N/A

Pressure: 30.54 "Hg

Humidity: 62%

Dew point: 37 °F

Location of CuzcoLocation

Historic Weather in Cuzco — Graph

°F

Cuzco temperature yesterday

Maximum temperature yesterday: 66 °F (at 2:00 PM)
Minimum temperature yesterday: 45 °F (at 6:00 AM)
Average temperature yesterday: 56 °F

Past Weeks' High & Low Weather Summary

 TemperatureHumidityPressure
High73 °F (Sep 25, 1:00 PM)87% (Sep 15, 6:00 AM)30.60 "Hg (Sep 15, 6:00 AM)
Low39 °F (Sep 15, 6:00 AM)17% (Sep 19, 4:00 PM)30.27 "Hg (Sep 19, 4:00 PM)
Average55 °F53%30.46 "Hg
* Reported Sep 15 6:00 AM — Sep 30 6:00 AM, Cuzco, Weather by CustomWeather, © 2014

Note: Actual official high and low records may vary slightly from our data, if they occured in-between our weather recording intervals... More about our weather records

Advertising

Cuzco weather history for previous 24 hours

 ConditionsComfort  
Time TempWeatherWind HumidityBarometerVisibility
6:00 AM
Sep 30
45 °FPartly sunny.No wind76%30.51 "HgN/A
5:00 AM45 °FPassing clouds.No wind71%30.51 "HgN/A
4:00 AM46 °FPassing clouds.2 mph71%30.48 "HgN/A
3:00 AM46 °FPassing clouds.No wind71%30.51 "HgN/A
2:00 AM50 °FPartly cloudy.No wind62%30.51 "HgN/A
1:00 AM48 °FPassing clouds.3 mph66%30.51 "HgN/A
12:00 AM52 °FPassing clouds.3 mph58%30.54 "HgN/A
11:00 PM
Sep 29
52 °FPassing clouds.No wind58%30.54 "HgN/A
10:00 PM52 °FPassing clouds.3 mph58%30.54 "HgN/A
9:00 PM50 °FPassing clouds.7 mph58%30.51 "HgN/A
8:00 PM55 °FPassing clouds.7 mph51%30.48 "HgN/A
7:00 PM57 °FPassing clouds.5 mph48%30.45 "HgN/A
6:00 PM59 °FPassing clouds.6 mph45%30.39 "HgN/A
5:00 PM63 °FScattered clouds.8 mph39%30.36 "HgN/A
4:00 PM63 °FScattered clouds.12 mph37%30.36 "HgN/A
3:00 PM64 °FPartly sunny.9 mph32%30.36 "HgN/A
2:00 PM66 °FScattered clouds.10 mph32%30.39 "HgN/A
1:00 PM63 °FBroken clouds.9 mph34%30.42 "HgN/A
12:00 PM64 °FBroken clouds.6 mph34%30.45 "HgN/A
11:00 AM64 °FBroken clouds.6 mph28%30.48 "HgN/A
10:00 AM63 °FBroken clouds.3 mph34%30.51 "HgN/A
9:00 AM55 °FBroken clouds.2 mph55%30.54 "HgN/A
8:00 AM55 °FBroken clouds.2 mph55%30.54 "HgN/A
7:00 AM50 °FBroken clouds.2 mph67%30.54 "HgN/A
Weather by CustomWeather, © 2014

See weather overviewHow to use our weather pages